When you browse on this site, cookies collect data to enhance your experience and personalize the content and advertising you see.
Visit our Privacy Policy to learn more. By continuing to use the site, you agree to this use of cookies and data.
  • In Latvia
  • List of Countries
  • For 7 days
  • Water Temperature
  • Satellite Maps
  • Weather Map
  • Weather Widgets
  • user-avatar
    Login

    Hourly Weather Namyur

    Today, 18 February, Monday

    Time Temperature Precipitation Wind Pressure Humidity
    00:00 +7°C° 0 mm 3 mps 754 mmHg 84%
    01:00 +7°C° 0 mm 3 mps 754 mmHg 84%
    02:00 +7°C° 0 mm 3 mps 754 mmHg 85%
    03:00 +7°C° 0 mm 3 mps 754 mmHg 85%
    04:00 +5°C° 0 mm 3 mps 754 mmHg 86%
    05:00 +5°C° 0 mm 3 mps 754 mmHg 87%
    06:00 +4°C° 0 mm 3 mps 754 mmHg 87%
    07:00 +5°C° 0 mm 3 mps 753 mmHg 83%
    08:00 +7°C° 0 mm 3 mps 753 mmHg 79%
    09:00 +7°C° 0 mm 4 mps 753 mmHg 75%
    10:00 +10°C° 0 mm 4 mps 753 mmHg 71%
    11:00 +11°C° 0 mm 4 mps 753 mmHg 68%
    12:00 +13°C° 0 mm 3 mps 753 mmHg 61%
    13:00 +13°C° 0 mm 3 mps 752 mmHg 63%
    14:00 +13°C° 0 mm 4 mps 752 mmHg 64%
    15:00 +13°C° 0 mm 4 mps 751 mmHg 65%
    16:00 +11°C° 0 mm 4 mps 751 mmHg 72%
    17:00 +10°C° 0 mm 4 mps 751 mmHg 80%
    18:00 +8°C° 0 mm 3 mps 751 mmHg 87%
    19:00 +7°C° 0 mm 4 mps 751 mmHg 86%
    20:00 +7°C° 0 mm 4 mps 752 mmHg 86%
    21:00 +7°C° 0 mm 4 mps 752 mmHg 85%
    22:00 +6°C° 0 mm 4 mps 752 mmHg 87%
    23:00 +7°C° 0 mm 3 mps 752 mmHg 89%

    Tomorrow, 19 February, Tuesday

    Time Temperature Precipitation Wind Pressure Humidity
    00:00 +5°C° 0 mm 3 mps 752 mmHg 90%
    01:00 +5°C° 0.3 mm 3 mps 752 mmHg 92%
    02:00 +7°C° 0.3 mm 3 mps 752 mmHg 93%
    03:00 +7°C° 0.3 mm 3 mps 752 mmHg 94%
    04:00 +7°C° 0.4 mm 3 mps 752 mmHg 94%
    05:00 +5°C° 0.4 mm 3 mps 753 mmHg 95%
    06:00 +5°C° 0.4 mm 3 mps 753 mmHg 96%
    07:00 +7°C° 0 mm 3 mps 753 mmHg 92%
    08:00 +7°C° 0 mm 3 mps 753 mmHg 88%
    09:00 +6°C° 0 mm 4 mps 754 mmHg 84%
    10:00 +7°C° 0 mm 4 mps 754 mmHg 78%
    11:00 +8°C° 0 mm 4 mps 754 mmHg 72%
    12:00 +10°C° 0 mm 4 mps 754 mmHg 66%
    13:00 +10°C° 0 mm 4 mps 754 mmHg 66%
    14:00 +10°C° 0 mm 4 mps 754 mmHg 66%
    15:00 +10°C° 0 mm 4 mps 754 mmHg 66%
    16:00 +8°C° 0 mm 4 mps 754 mmHg 71%
    17:00 +8°C° 0 mm 3 mps 755 mmHg 77%
    18:00 +7°C° 0 mm 2 mps 755 mmHg 82%
    19:00 +6°C° 0 mm 2 mps 755 mmHg 83%
    20:00 +5°C° 0 mm 3 mps 755 mmHg 85%
    21:00 +4°C° 0 mm 3 mps 755 mmHg 86%
    22:00 +4°C° 0 mm 3 mps 756 mmHg 86%
    23:00 +4°C° 0 mm 3 mps 756 mmHg 86%

    Day after tomorrow, 20 February, Wednesday

    Time Temperature Precipitation Wind Pressure Humidity
    00:00 +3°C° 0 mm 3 mps 756 mmHg 86%
    01:00 +3°C° 0 mm 3 mps 756 mmHg 84%
    02:00 +3°C° 0 mm 3 mps 755 mmHg 82%
    03:00 +4°C° 0 mm 3 mps 755 mmHg 80%
    04:00 +4°C° 0 mm 3 mps 755 mmHg 81%
    05:00 +4°C° 0 mm 3 mps 755 mmHg 83%
    06:00 +4°C° 0 mm 4 mps 756 mmHg 84%
    07:00 +5°C° 0 mm 4 mps 756 mmHg 83%
    08:00 +5°C° 0 mm 4 mps 756 mmHg 82%
    09:00 +6°C° 0 mm 5 mps 757 mmHg 81%
    10:00 +7°C° 0 mm 5 mps 757 mmHg 76%
    11:00 +8°C° 0 mm 5 mps 757 mmHg 72%
    12:00 +10°C° 0 mm 5 mps 757 mmHg 67%
    13:00 +10°C° 0 mm 5 mps 757 mmHg 66%
    14:00 +10°C° 0 mm 5 mps 757 mmHg 65%
    15:00 +10°C° 0 mm 5 mps 756 mmHg 64%
    16:00 +10°C° 0 mm 4 mps 757 mmHg 70%
    17:00 +9°C° 0 mm 3 mps 757 mmHg 76%
    18:00 +8°C° 0 mm 3 mps 757 mmHg 82%
    19:00 +7°C° 0 mm 3 mps 758 mmHg 84%
    20:00 +7°C° 0 mm 3 mps 758 mmHg 86%
    21:00 +5°C° 0 mm 3 mps 758 mmHg 88%
    22:00 +5°C° 0 mm 3 mps 758 mmHg 88%
    23:00 +5°C° 0 mm 3 mps 758 mmHg 89%

    21 February, Thursday

    Time Temperature Precipitation Wind Pressure Humidity
    00:00 +4°C° 0 mm 3 mps 759 mmHg 90%
    01:00 +4°C° 0 mm 3 mps 759 mmHg 90%
    02:00 +4°C° 0 mm 3 mps 759 mmHg 90%
    03:00 +5°C° 0 mm 2 mps 759 mmHg 90%
    04:00 +5°C° 0 mm 2 mps 760 mmHg 91%
    05:00 +4°C° 0 mm 2 mps 760 mmHg 91%
    06:00 +4°C° 0 mm 2 mps 760 mmHg 91%
    07:00 +5°C° 0 mm 2 mps 760 mmHg 87%
    08:00 +5°C° 0 mm 3 mps 761 mmHg 84%
    09:00 +7°C° 0 mm 3 mps 761 mmHg 80%
    10:00 +9°C° 0 mm 3 mps 761 mmHg 75%
    11:00 +10°C° 0 mm 3 mps 762 mmHg 69%
    12:00 +12°C° 0 mm 3 mps 762 mmHg 64%
    13:00 +12°C° 0 mm 3 mps 762 mmHg 64%
    14:00 +12°C° 0 mm 3 mps 762 mmHg 63%
    15:00 +14°C° 0 mm 2 mps 762 mmHg 63%
    16:00 +12°C° 0 mm 2 mps 762 mmHg 70%
    17:00 +11°C° 0 mm 1 mps 762 mmHg 76%
    18:00 +9°C° 0 mm 1 mps 763 mmHg 83%
    19:00 +9°C° 0 mm 1 mps 763 mmHg 84%
    20:00 +8°C° 0 mm 1 mps 764 mmHg 86%
    21:00 +8°C° 0 mm 1 mps 764 mmHg 87%
    22:00 +6°C° 0 mm 2 mps 764 mmHg 87%
    23:00 +6°C° 0 mm 2 mps 765 mmHg 88%

    22 February, Friday

    Time Temperature Precipitation Wind Pressure Humidity
    00:00 +6°C° 0 mm 2 mps 765 mmHg 88%
    01:00 +7°C° 0 mm 1 mps 765 mmHg 88%
    02:00 +6°C° 0 mm 1 mps 765 mmHg 88%
    03:00 +6°C° 0 mm 1 mps 765 mmHg 88%
    04:00 +6°C° 0 mm 1 mps 765 mmHg 88%
    05:00 +6°C° 0 mm 1 mps 766 mmHg 87%
    06:00 +6°C° 0 mm 1 mps 766 mmHg 87%
    07:00 +7°C° 0 mm 1 mps 766 mmHg 82%
    08:00 +8°C° 0 mm 1 mps 767 mmHg 77%
    09:00 +10°C° 0 mm 1 mps 767 mmHg 73%
    10:00 +11°C° 0 mm 1 mps 767 mmHg 66%
    11:00 +13°C° 0 mm 1 mps 767 mmHg 60%
    12:00 +14°C° 0 mm 1 mps 767 mmHg 54%
    13:00 +15°C° 0 mm 1 mps 767 mmHg 53%
    14:00 +15°C° 0 mm 1 mps 767 mmHg 53%
    15:00 +16°C° 0 mm 1 mps 767 mmHg 53%
    16:00 +14°C° 0 mm 2 mps 767 mmHg 60%
    17:00 +12°C° 0 mm 2 mps 767 mmHg 67%
    18:00 +9°C° 0 mm 2 mps 767 mmHg 74%
    19:00 +9°C° 0 mm 2 mps 767 mmHg 76%
    20:00 +8°C° 0 mm 2 mps 768 mmHg 78%
    21:00 +8°C° 0 mm 2 mps 768 mmHg 80%
    22:00 +7°C° 0 mm 2 mps 768 mmHg 79%
    23:00 +7°C° 0 mm 2 mps 768 mmHg 78%

    23 February, Saturday

    Time Temperature Precipitation Wind Pressure Humidity
    00:00 +7°C° 0 mm 2 mps 768 mmHg 77%
    01:00 +7°C° 0 mm 2 mps 767 mmHg 76%
    02:00 +6°C° 0 mm 2 mps 767 mmHg 76%
    03:00 +6°C° 0 mm 2 mps 767 mmHg 76%
    04:00 +6°C° 0 mm 2 mps 767 mmHg 78%
    05:00 +6°C° 0 mm 2 mps 767 mmHg 81%
    06:00 +6°C° 0 mm 2 mps 767 mmHg 83%
    07:00 +7°C° 0 mm 2 mps 767 mmHg 80%
    08:00 +9°C° 0 mm 2 mps 767 mmHg 77%
    09:00 +10°C° 0 mm 2 mps 767 mmHg 75%
    10:00 +13°C° 0 mm 2 mps 767 mmHg 70%
    11:00 +15°C° 0 mm 2 mps 767 mmHg 65%
    12:00 +17°C° 0 mm 3 mps 767 mmHg 60%
    13:00 +17°C° 0 mm 2 mps 766 mmHg 59%
    14:00 +17°C° 0 mm 2 mps 766 mmHg 58%
    15:00 +18°C° 0 mm 2 mps 766 mmHg 58%
    16:00 +16°C° 0 mm 2 mps 766 mmHg 64%
    17:00 +14°C° 0 mm 2 mps 766 mmHg 70%
    18:00 +11°C° 0 mm 3 mps 766 mmHg 76%
    19:00 +10°C° 0 mm 3 mps 766 mmHg 77%
    20:00 +9°C° 0 mm 3 mps 766 mmHg 78%
    21:00 +8°C° 0 mm 2 mps 766 mmHg 78%
    22:00 +8°C° 0 mm 2 mps 766 mmHg 77%
    23:00 +8°C° 0 mm 2 mps 765 mmHg 76%
    Show more